Location: Haliburton Scout Reserve
(45.0900°N, 78.3200°W)
Time: 15:42:52
(UTC-04:00)

STRAND 1 - Visible Passes

Search period start: 16 May 2022 00:00
Search period end: 26 May 2022 00:00
Orbit: 767 x 781 km, 98.4° (Epoch: 16 May)

Date Brightness Start Highest point End Pass type
(mag) Time Alt. Az. Time Alt. Az. Time Alt. Az.
16 May ? 22:10:48 10° NNW 22:13:13 13° WNW 22:15:37 10° W visible
17 May ? 21:35:21 10° N 21:39:28 25° WNW 21:43:35 10° WSW visible
19 May ? 22:07:15 10° NNW 22:09:55 14° WNW 22:12:34 10° W visible
20 May ? 21:31:55 10° N 21:36:09 26° WNW 21:40:21 10° WSW visible
22 May ? 22:03:44 10° NNW 22:06:36 15° WNW 22:09:28 10° W visible
23 May ? 21:28:30 10° N 21:32:50 28° WNW 21:37:08 10° WSW visible
25 May ? 22:00:14 10° NNW 22:03:17 16° WNW 22:06:21 10° W visible
